Simultaneous Nadir Overpasses (SNOs) Predictions

Prediction of SNOs between GOES-16 and FY3D Satellite Orbit:

Table of predicted SNOs for the next 14.0 days since TLE Epoch: 11/2/2024
Index Date Time (GOES-16) GOES-16 Lat,Lon FY3D Lat,Lon Distance(km) Time Diff (sec)
1 11/02/2024 19:44:36 -0.01, -75.21 0.03, -74.99 24.84 80
2 11/05/2024 07:45:09 0.01, -75.20 0.14, -75.71 57.94 80
3 11/06/2024 07:26:29 0.01, -75.21 -0.91, -71.18 459.18 80
4 11/07/2024 19:48:29 -0.01, -75.22 -0.31, -76.46 141.98 80
5 11/08/2024 19:32:29 -0.01, -75.22 0.76, -71.93 375.63 80
6 11/10/2024 07:54:21 0.00, -75.23 0.47, -77.18 222.76 80
7 11/11/2024 07:33:00 0.00, -75.24 -0.61, -72.65 295.30 80
8 11/12/2024 19:55:00 0.00, -75.26 -0.63, -77.92 304.41 80
9 11/13/2024 19:38:58 -0.00, -75.27 0.41, -73.39 214.18 80
10 11/15/2024 08:00:51 0.00, -75.29 0.78, -78.64 382.72 80
